KB2KRJ Weather Reports


Display with metric or nautical units.
time (UTC)temp
F
wind
direction
speed
MPH
gust
MPH
rain 1hr
in
rain 24hr
in
rain mn
in
humidity
%
barometer
mb
20260503054525 35 61 0.0 2.0 0.00 0.03 0.00 65 1012.9
20260503053029 34 61 0.0 0.0 0.00 0.03 0.00 65 1013.1
20260503051515 34 61 0.0 0.0 0.00 0.03 0.00 66 1013.2
20260503050014 34 61 0.0 0.0 0.00 0.03 0.00 67 1013.4
20260503044512 34 61 0.0 0.0 0.00 0.06 0.00 68 1013.5
20260503043016 35 61 0.0 0.0 0.00 0.06 0.00 69 1013.6
20260503041506 35 61 0.0 0.0 0.00 0.06 0.00 70 1013.5
20260503040004 36 61 0.0 0.0 0.00 0.06 0.00 70 1013.7
20260503034504 36 61 0.0 1.0 0.00 0.07 0.06 71 1013.6
20260503033001 37 61 0.0 0.0 0.00 0.07 0.06 71 1013.7
20260503031600 37 61 0.0 0.0 0.00 0.07 0.06 71 1013.7
20260503030058 37 61 0.0 1.0 0.00 0.07 0.06 71 1013.9
20260503024557 38 61 0.0 1.0 0.00 0.07 0.06 71 1013.9
20260503023057 39 61 0.0 0.0 0.00 0.07 0.06 70 1013.8
20260503021552 39 61 0.0 0.0 0.00 0.07 0.06 69 1013.9
20260503020049 40 61 0.0 0.0 0.00 0.07 0.06 68 1013.8
20260503014548 40 61 0.0 1.0 0.00 0.07 0.06 69 1013.8
20260503013046 41 61 0.0 2.0 0.00 0.07 0.06 67 1013.8
20260503011543 42 61 0.0 2.0 0.00 0.07 0.06 64 1013.7
20260503010041 42 61 0.0 1.0 0.00 0.07 0.06 62 1013.4
20260503004538 43 61 0.0 1.0 0.00 0.07 0.06 61 1013.2
20260503003037 44 61 0.0 1.0 0.00 0.07 0.06 60 1013.1
20260503001531 46 61 0.0 1.0 0.00 0.07 0.06 56 1012.9
20260503000033 47 61 0.0 1.0 0.00 0.07 0.06 53 1012.6
20260502234545 48 61 0.0 3.0 0.00 0.07 0.06 49 1012.5
20260502233029 49 215 0.0 3.0 0.00 0.07 0.06 45 1012.4
20260502231530 49 169 0.0 5.0 0.00 0.07 0.06 44 1012.3
20260502230028 50 184 1.0 10.0 0.00 0.07 0.06 42 1012.1
20260502224529 51 221 2.0 7.0 0.00 0.07 0.06 40 1012.0
20260502223028 51 171 0.0 9.0 0.00 0.07 0.06 45 1011.8
20260502221529 51 330 2.0 7.0 0.00 0.07 0.06 44 1011.8
20260502220027 50 196 0.0 4.0 0.00 0.07 0.06 47 1011.7
20260502214538 52 163 1.0 5.0 0.00 0.07 0.06 44 1011.8
20260502213026 52 135 1.0 5.0 0.00 0.07 0.06 43 1011.5
20260502211534 53 182 1.0 7.0 0.00 0.07 0.06 41 1011.4
20260502210026 52 57 1.0 7.0 0.00 0.07 0.06 41 1011.4
20260502204525 52 229 0.0 7.0 0.00 0.07 0.06 41 1011.3
20260502203025 53 81 1.0 7.0 0.00 0.07 0.06 40 1011.3
20260502201523 54 195 2.0 7.0 0.00 0.07 0.06 42 1011.5
20260502200022 54 132 0.0 3.0 0.00 0.07 0.06 41 1011.5
20260502194521 53 218 0.0 6.0 0.00 0.07 0.06 40 1011.7
20260502193021 55 254 1.0 6.0 0.00 0.07 0.06 40 1011.8
20260502191522 53 210 2.0 7.0 0.00 0.07 0.06 41 1011.9
20260502190019 53 163 2.0 9.0 0.00 0.07 0.06 42 1012.0
20260502184519 54 211 0.0 7.0 0.00 0.07 0.06 43 1011.9
20260502183019 54 144 1.0 7.0 0.00 0.07 0.06 43 1012.0
20260502181518 56 210 3.0 13.0 0.00 0.07 0.06 39 1011.9
20260502163010 52 192 2.0 7.0 0.00 0.07 0.06 51 1012.4
20260502161507 51 350 1.0 7.0 0.00 0.07 0.06 51 1012.5
20260502151503 51 184 1.0 7.0 0.00 0.07 0.06 62 1013.0
20260502123049 46 207 1.0 4.0 0.00 0.07 0.06 45 1013.4
20260502121550 46 211 2.0 6.0 0.00 0.07 0.06 34 1013.2
20260502114536 0 0.0 0.0 0.00 0.07 0.06 1013.2
20260502113032 0 0.0 0.0 0.00 0.07 0.06 1013.3
20260502111532 0 0.0 0.0 0.00 0.07 0.06 1013.0
20260502110029 0 0.0 0.0 0.00 0.07 0.06 1012.9
20260502104518 0 0.0 0.0 0.00 0.07 0.06 1012.6
20260502103017 0 0.0 0.0 0.01 0.07 0.06 1012.6
20260502101513 48 194 0.0 0.0 0.01 0.07 0.06 21 1012.3
20260502091510 48 194 0.0 0.0 0.00 0.06 0.05 22 1012.0
20260502070059 48 194 0.0 0.0 0.01 0.06 0.05 26 1012.1
20260502064601 48 194 0.0 0.0 0.02 0.06 0.05 27 1012.3
20260502063059 48 194 0.0 0.0 0.02 0.06 0.05 28 1012.4